sat.trackr.live / text

‹ back to catalog

QIANFAN-168

NORAD 69385 · 2026-124D

PAYLOAD ACTIVE UNKNOWN

§ Identity

Operator
Country
PRC
Launch date
2026-06-04
Launch site
TAISC
Launch vehicle
Mass (kg)
RCS (m²)

External: N2YO · Heavens-Above · Gunter

§ Orbital elements

Epoch: 2026-09-20T04:03:38.573280Z

Period
106.59 min
Inclination
89.0059°
Eccentricity
0.0001654
Mean motion
13.51020458 rev/d
Perigee alt
1,067.3 km
Apogee alt
1,069.7 km
Semi-major
7,446.6 km
B*
1.6259e-4
RAAN
352.0526°
Arg perigee
108.6984°
Mean anomaly
251.4346°
Rev number
1,486

§ Raw data

QIANFAN-1681 69385U 26124D   26263.16919645  .00000117  00000+0  16259-3 0  99902 69385  89.0059 352.0526 0001654 108.6984 251.4346 13.51020458 14862

JSON: /api/v1/satellites/69385 · /tle

For live sub-satellite position, see the globe view (requires WebGL).

§ Visibility from observer

Set your observer location to see the next 7 days of passes ≥ 10°. The values pass through the URL so the page stays shareable.

No JS? Fill the form by hand. The geolocation button needs JavaScript.